Content
SEND FEEDBACK

Daily
Averages
Monthly
Summary
United States of America

SCOTLAND, PENNSYLVANIA


Home > North America > United States > Pennsylvania
Elevation: 640 feet     Latitude: 39 56N     Longitude: 077 38W

WEATHER
 
SELECT A DAY
Number of Records: 55,293;   Date Range: 9/1/12 - 12/19/14
 
SHARE

PRINT THIS DATA

[ ← Previous Day ]
WEATHER ALMANAC - JANUARY 31, 2013
[ Next Day → ]
[ °C ]   °F
Weather ElementAverageHighLow
Temperature27.5 °F42.8 °F (12:35 am)21.2 °F (11:15 pm)
Dewpoint18.2 °F37.4 °F (12:35 am)10.4 °F (1:35 pm)
Humidity68.7 %87 % (1:55 am)51 % (1:35 pm)
Barometer29.70 in29.87 in (10:15 pm)29.35 in (12:35 am)
Wind Speed17.2 mph27.6 mph (2:15 pm)
Wind Gust40.3 mph (11:15 am)
Weather ElementAverage
Visibility8.3 mi
Wind DirectionWSW (251.3 °)

Weather ElementTotal
Precipitation---
Heating Degree Days33 (Base 65)
Averaged from 68 records on January 31, 2013
WEATHER CONDITIONS BREAKOUT
WIND DIRECTION BREAKOUT
WEATHER BY HOUR - JANUARY 31, 2013
[ °C ]   °F
Local TimeTemperatureDewpointHumidityBarometerVisibilityWind DirectionWind SpeedGust SpeedPrecipitationEventsConditions
12:35 AM42.8 °F37.4 °F81 %29.35 in6.0 miWest (280°)13.8 mph23.0 mphOvercast
12:55 AM41.0 °F35.6 °F81 %29.35 in10.0 miWest (270°)17.3 mph24.2 mphOvercast
1:15 AM39.2 °F33.8 °F81 %29.38 in10.0 miWest (260°)18.4 mph28.8 mphMostly Cloudy
1:35 AM37.4 °F32.0 °F81 %29.39 in10.0 miWest (260°)17.3 mph31.1 mphOvercast
1:55 AM35.6 °F32.0 °F87 %29.41 in5.0 miWSW (250°)15.0 mph25.3 mphOvercast
2:15 AM33.8 °F30.2 °F87 %29.43 in8.0 miWest (270°)19.6 mph35.7 mphOvercast
2:35 AM33.8 °F28.4 °F81 %29.44 in10.0 miWest (270°)19.6 mph28.8 mphOvercast
2:55 AM33.8 °F26.6 °F75 %29.45 in9.0 miWest (260°)20.7 mph38.0 mphOvercast
3:15 AM33.8 °F26.6 °F75 %29.47 in10.0 miWest (260°)19.6 mph31.1 mphOvercast
3:35 AM33.8 °F24.8 °F70 %29.47 in10.0 miWSW (250°)23.0 mph29.9 mphMostly Cloudy
3:55 AM33.8 °F26.6 °F75 %29.48 in9.0 miWSW (240°)25.3 mph31.1 mphOvercast
4:15 AM32.0 °F26.6 °F80 %29.49 in10.0 miSW (230°)19.6 mph29.9 mphOvercast
4:35 AM30.2 °F26.6 °F86 %29.50 in2.5 miWSW (250°)19.6 mph33.4 mphOvercast
4:55 AM30.2 °F24.8 °F80 %29.51 in10.0 miWSW (250°)21.9 mph33.4 mphOvercast
5:15 AM30.2 °F21.2 °F69 %29.52 in10.0 miWSW (250°)21.9 mph35.7 mphOvercast
5:35 AM30.2 °F19.4 °F64 %29.54 in10.0 miWest (270°)23.0 mph34.5 mphOvercast
5:55 AM30.2 °F19.4 °F64 %29.55 in10.0 miWest (260°)16.1 mph34.5 mphOvercast
6:15 AM30.2 °F21.2 °F69 %29.57 in10.0 miWSW (250°)20.7 mph32.2 mphOvercast
6:35 AM30.2 °F19.4 °F64 %29.58 in10.0 miWSW (250°)20.7 mph36.8 mphOvercast
6:55 AM28.4 °F21.2 °F74 %29.60 in10.0 miWSW (250°)18.4 mph33.4 mphOvercast
7:15 AM28.4 °F21.2 °F74 %29.61 in8.0 miWSW (250°)15.0 mph27.6 mphOvercast
7:35 AM28.4 °F21.2 °F74 %29.63 in1.5 miWSW (250°)18.4 mph31.1 mphOvercast
7:55 AM26.6 °F21.2 °F80 %29.64 in7.0 miWest (260°)23.0 mph32.2 mphOvercast
8:15 AM26.6 °F19.4 °F74 %29.66 in7.0 miWSW (250°)19.6 mph32.2 mphMostly Cloudy
8:35 AM26.6 °F15.8 °F64 %29.67 in10.0 miWSW (250°)13.8 mph31.1 mphOvercast
8:55 AM26.6 °F17.6 °F69 %29.68 in3.0 miWSW (240°)18.4 mph27.6 mphOvercast
9:15 AM26.6 °F17.6 °F69 %29.70 in10.0 miWSW (250°)21.9 mph35.7 mphMostly Cloudy
9:35 AM24.8 °F15.8 °F69 %29.72 in10.0 miWest (260°)24.2 mph34.5 mphMostly Cloudy
9:55 AM24.8 °F14.0 °F64 %29.72 in10.0 miWSW (240°)25.3 mph32.2 mphOvercast
10:15 AM24.8 °F14.0 °F64 %29.72 in10.0 miWest (260°)12.7 mph26.5 mphOvercast
10:35 AM24.8 °F15.8 °F69 %29.73 in5.0 miWSW (250°)19.6 mph31.1 mphOvercast
10:55 AM24.8 °F17.6 °F74 %29.75 in4.0 miWSW (240°)15.0 mph28.8 mphOvercast
11:15 AM24.8 °F15.8 °F69 %29.75 in9.0 miWSW (250°)25.3 mph40.3 mphOvercast
11:35 AM26.6 °F15.8 °F64 %29.75 in10.0 miWSW (250°)24.2 mph36.8 mphMostly Cloudy
11:55 AM26.6 °F14.0 °F59 %29.75 in10.0 miWSW (250°)18.4 mph28.8 mphOvercast
12:15 PM26.6 °F12.2 °F55 %29.75 in10.0 miWSW (240°)21.9 mph35.7 mphOvercast
12:35 PM26.6 °F14.0 °F59 %29.76 in4.0 miWest (260°)23.0 mph31.1 mphMostly Cloudy
12:55 PM24.8 °F15.8 °F69 %29.76 in10.0 miWSW (250°)19.6 mph32.2 mphMostly Cloudy
1:15 PM26.6 °F14.0 °F59 %29.76 in10.0 miWSW (240°)25.3 mph34.5 mphOvercast
1:35 PM26.6 °F10.4 °F51 %29.76 in10.0 miWest (260°)18.4 mph31.1 mphOvercast
1:55 PM24.8 °F12.2 °F59 %29.78 in8.0 miWSW (250°)19.6 mph36.8 mphOvercast
2:15 PM24.8 °F15.8 °F69 %29.79 in8.0 miWSW (250°)27.6 mph36.8 mphMostly Cloudy
2:35 PM26.6 °F10.4 °F51 %29.79 in10.0 miWest (260°)19.6 mph28.8 mphMostly Cloudy
2:55 PM24.8 °F10.4 °F54 %29.82 in3.0 miWSW (250°)20.7 mph35.7 mphMostly Cloudy
3:15 PM23.0 °F15.8 °F74 %29.82 in10.0 miWest (260°)20.7 mph25.3 mphOvercast
3:35 PM24.8 °F12.2 °F59 %29.83 in10.0 miWest (260°)18.4 mph25.3 mphMostly Cloudy
3:55 PM24.8 °F10.4 °F54 %29.83 in10.0 miWSW (250°)12.7 mph25.3 mphOvercast
4:15 PM24.8 °F10.4 °F54 %29.84 in10.0 miWSW (250°)19.6 mph26.5 mphOvercast
4:35 PM24.8 °F10.4 °F54 %29.84 in10.0 miWSW (240°)12.7 mph27.6 mphOvercast
4:55 PM24.8 °F12.2 °F59 %29.84 in10.0 miWSW (240°)15.0 mph25.3 mphOvercast
5:15 PM24.8 °F12.2 °F59 %29.84 in10.0 miWSW (240°)13.8 mph23.0 mphOvercast
5:35 PM24.8 °F12.2 °F59 %29.84 in10.0 miWSW (240°)15.0 mph23.0 mphOvercast
5:55 PM24.8 °F10.4 °F54 %29.84 in10.0 miWSW (240°)9.2 mph20.7 mphOvercast
6:15 PM24.8 °F10.4 °F54 %29.84 in10.0 miSW (230°)13.8 mph20.7 mphOvercast
6:35 PM24.8 °F10.4 °F54 %29.84 in10.0 miWSW (240°)13.8 mph21.9 mphOvercast
6:55 PM24.8 °F12.2 °F59 %29.85 in10.0 miWSW (240°)10.4 mph17.3 mphMostly Cloudy
7:15 PM24.8 °F12.2 °F59 %29.85 in10.0 miWSW (240°)11.5 mph21.9 mphOvercast
7:35 PM24.8 °F15.8 °F69 %29.85 in10.0 miWSW (250°)9.2 mph17.3 mphMostly Cloudy
8:15 PM24.8 °F12.2 °F59 %29.85 in10.0 miSW (230°)16.1 mph23.0 mphOvercast
8:35 PM24.8 °F12.2 °F59 %29.86 in10.0 miWSW (240°)15.0 mph21.9 mphOvercast
9:15 PM24.8 °F15.8 °F69 %29.86 in3.0 miWSW (250°)6.9 mph16.1 mphOvercast
9:35 PM24.8 °F15.8 °F69 %29.86 in10.0 miWSW (240°)6.9 mphOvercast
10:15 PM23.0 °F17.6 °F80 %29.87 in1.2 miWest (270°)8.1 mphOvercast
10:35 PM23.0 °F19.4 °F86 %29.87 in2.0 miWNW (290°)5.8 mphOvercast
10:55 PM23.0 °F19.4 °F86 %29.86 in1.5 miWSW (250°)10.4 mph17.3 mphOvercast
11:15 PM21.2 °F17.6 °F86 %29.86 in4.0 miWSW (250°)6.9 mphMostly Cloudy
11:35 PM21.2 °F17.6 °F86 %29.85 in7.0 miWest (260°)6.9 mphOvercast
11:55 PM21.2 °F17.6 °F86 %29.84 in6.0 miWSW (250°)5.8 mphOvercast
Hourly data recorded from KWAY, located miles away from Scotland, Pennsylvania







STORIES FROM OUR PARTNERS